DateTimeUTC,F1_A11,F1_S11,BsB_S11,BsG_S11,BsR_S11,BbsB_S11,BbsG_S11,BbsR_S11,BaB_A11,BaG_A11,BaR_A11,Tu_S11,T_S11,Uu_S11,U_S11,P_S11,T1_A11
2021-07-28T11:00:00Z,00000200,20000000,,,,,,,-000.18,-000.44,-000.17,19.3,25.6,16.0,10.9,0686.8,31.1
2021-07-28T11:01:00Z,00000200,20000000,,,,,,,-000.63,-000.20,-000.42,19.3,25.6,16.0,10.9,0686.8,31.1
2021-07-28T11:02:00Z,00000200,20000000,,,,,,,0000.33,-000.20,0000.19,19.3,25.6,16.0,10.9,0686.8,31.1
2021-07-28T11:03:00Z,00000200,60000000,,,,,,,0000.63,0000.58,0000.54,19.3,25.6,16.0,10.9,0686.8,31.1
2021-07-28T11:04:00Z,00000200,40000000,0010.34,0007.54,0004.26,0001.19,0000.91,0000.71,0001.47,0001.51,0001.41,19.4,25.5,15.9,11.0,0687.7,31.1
2021-07-28T11:05:00Z,00000200,00000000,0010.52,0007.42,0004.32,0000.77,0000.84,0000.45,0001.22,0001.21,0000.70,19.4,25.4,16.0,11.1,0687.8,31.1
2021-07-28T11:06:00Z,00000200,00000000,0009.04,0007.29,0004.15,0001.25,0000.89,0000.80,0001.29,0000.90,0000.92,19.4,25.4,16.1,11.2,0687.8,31.1
2021-07-28T11:07:00Z,00000200,00000000,0010.42,0007.19,0004.08,0001.00,0000.91,0000.51,0001.01,0001.14,0000.67,19.4,25.4,16.1,11.2,0687.8,31.1
2021-07-28T11:08:00Z,00000200,00000000,0010.10,0007.59,0004.27,0001.12,0000.96,0000.78,0000.89,0001.00,0000.82,19.4,25.4,16.1,11.2,0687.8,31.1
2021-07-28T11:09:00Z,00000200,00000000,0008.88,0006.96,0003.96,0000.96,0000.86,0000.58,0001.25,0001.01,0001.27,19.4,25.4,16.0,11.1,0687.9,31.1
2021-07-28T11:10:00Z,00000200,00000000,0009.38,0006.76,0004.33,0001.78,0000.69,0000.63,0001.18,0000.96,0000.76,19.4,25.4,16.0,11.2,0687.8,31.1
2021-07-28T11:11:00Z,00000200,00000000,0009.03,0007.20,0004.01,0001.36,0000.91,0000.70,0001.01,0001.10,0000.29,19.4,25.4,16.1,11.2,0687.8,31.1
2021-07-28T11:12:00Z,00000200,00000000,0009.05,0006.39,0003.92,0001.16,0001.18,0000.81,0000.66,0000.76,0001.27,19.5,25.4,16.1,11.2,0687.8,31.1
2021-07-28T11:13:00Z,00000200,00000000,0008.61,0006.75,0004.12,0001.67,0001.01,0000.51,0000.99,0001.14,0000.53,19.5,25.4,16.1,11.2,0687.7,31.1
2021-07-28T11:14:00Z,00000200,00000000,0009.04,0006.47,0003.97,0001.07,0000.71,0000.74,0001.04,0000.58,0001.13,19.5,25.4,16.1,11.2,0687.8,31.1
2021-07-28T11:15:00Z,00000200,00000000,0008.46,0006.10,0003.81,0000.84,0000.68,0000.60,0001.21,0001.44,0000.83,19.5,25.4,16.1,11.2,0687.9,31.1
2021-07-28T11:16:00Z,00000200,00000000,0009.02,0006.23,0003.75,0000.48,0000.93,0000.25,0001.03,0000.86,0000.96,19.5,25.4,16.2,11.3,0687.8,31.1
2021-07-28T11:17:00Z,00000200,00000000,0009.04,0006.09,0003.90,0000.94,0000.72,0000.37,0000.61,0000.65,0000.30,19.5,25.4,16.2,11.2,0687.7,31.1
2021-07-28T11:18:00Z,00000200,00000000,0009.29,0006.48,0003.74,0001.60,0001.02,0000.56,0001.31,0000.96,0000.95,19.5,25.4,16.1,11.2,0687.8,31.1
2021-07-28T11:19:00Z,00000200,00000000,0009.65,0006.33,0004.03,0000.68,0000.94,0000.57,0001.09,0001.39,0000.90,19.5,25.5,16.2,11.2,0687.8,31.1
2021-07-28T11:20:00Z,00000200,00000000,0008.37,0006.48,0003.83,0001.23,0000.88,0000.65,0000.92,0000.57,0001.19,19.5,25.4,16.2,11.3,0687.9,31.1
2021-07-28T11:21:00Z,00000200,00000000,0008.75,0006.67,0004.26,0000.64,0000.86,0000.73,0001.17,0001.01,0000.15,19.5,25.4,16.3,11.3,0687.8,31.1
2021-07-28T11:22:00Z,00000200,00000000,0008.80,0006.63,0003.59,0001.07,0001.08,0000.76,0000.58,0000.82,0001.10,19.5,25.5,16.3,11.3,0687.8,31.1
2021-07-28T11:23:00Z,00000200,00000000,0009.57,0006.62,0003.98,0000.72,0000.73,0000.87,0001.30,0001.24,0000.90,19.5,25.5,16.2,11.3,0687.8,31.1
2021-07-28T11:24:00Z,00000200,00000000,0008.66,0006.60,0003.91,0000.97,0000.73,0000.40,0000.79,0000.61,0000.41,19.5,25.5,16.2,11.3,0687.8,31.1
2021-07-28T11:25:00Z,00000200,00000000,0009.33,0006.36,0003.98,0001.85,0000.39,0000.74,0001.40,0001.19,0000.99,19.5,25.4,16.1,11.2,0687.7,31.1
2021-07-28T11:26:00Z,00000200,00000000,0008.95,0006.98,0003.89,0000.94,0000.95,0000.63,0001.51,0001.02,0000.57,19.3,25.3,16.3,11.3,0687.7,30.7
2021-07-28T11:27:00Z,00000200,00000000,0008.66,0006.82,0003.95,0001.18,0000.84,0000.59,0001.86,0001.57,0001.39,18.9,25.0,16.5,11.3,0687.8,30.4
2021-07-28T11:28:00Z,00000200,00000000,0009.47,0007.15,0004.48,0001.11,0001.14,0000.66,0000.75,0000.95,0001.13,18.6,24.8,16.7,11.4,0687.8,30.5
2021-07-28T11:29:00Z,00000200,00000000,0009.94,0007.02,0004.25,0000.82,0001.04,0000.69,0000.57,0000.94,0000.83,18.6,24.8,17.0,11.6,0687.7,30.7
2021-07-28T11:30:00Z,00000200,00000000,0009.05,0006.80,0003.91,0001.25,0000.85,0000.53,0001.00,0001.02,0000.60,18.6,24.8,17.2,11.7,0687.7,30.8
2021-07-28T11:31:00Z,00000200,00000000,0009.70,0007.03,0004.40,0000.96,0000.76,0000.62,0000.84,0000.64,0001.08,18.6,24.8,17.2,11.7,0687.7,30.9
2021-07-28T11:32:00Z,00000200,00000000,0010.32,0006.98,0004.52,0001.63,0000.84,0000.88,0001.10,0001.05,0000.75,18.6,24.8,17.3,11.9,0687.7,30.9
2021-07-28T11:33:00Z,00000200,00000000,0009.63,0007.05,0004.75,0001.14,0001.06,0000.70,0000.84,0000.92,0000.63,18.7,24.9,17.2,11.8,0687.6,30.9
2021-07-28T11:34:00Z,00000200,00000000,0009.91,0007.75,0004.63,0001.25,0001.06,0000.62,0001.06,0001.21,0000.79,18.7,24.9,17.3,11.9,0687.7,31.0
2021-07-28T11:35:00Z,00000200,00000000,0009.35,0007.06,0004.19,0001.82,0001.07,0000.33,0000.92,0000.68,0000.85,18.7,24.9,17.2,11.9,0687.6,31.0
2021-07-28T11:36:00Z,00000200,00000000,0009.21,0006.59,0004.11,0000.85,0001.21,0000.58,0001.16,0001.35,0001.07,18.8,24.9,17.2,11.8,0687.6,31.0
2021-07-28T11:37:00Z,00000200,00000000,0008.92,0006.03,0003.98,0001.20,0000.87,0000.55,0001.28,0000.82,0000.66,18.8,24.9,17.0,11.8,0687.6,31.0
2021-07-28T11:38:00Z,00000200,00000000,0008.44,0006.13,0003.72,0001.09,0001.01,0000.59,0000.42,0000.73,0000.73,18.9,24.9,17.2,11.8,0687.6,31.0
2021-07-28T11:39:00Z,00000200,00000000,0008.35,0005.74,0003.50,0001.02,0000.77,0000.43,0000.99,0000.65,0000.90,18.9,24.9,17.0,11.8,0687.6,31.0
2021-07-28T11:40:00Z,00000200,00000000,0006.95,0005.92,0003.45,0001.35,0000.76,0000.59,0000.93,0001.15,0000.69,19.0,24.9,17.0,11.8,0687.6,31.1
2021-07-28T11:41:00Z,00000200,00000000,0008.23,0005.63,0003.07,0000.84,0001.01,0000.38,0000.93,0000.37,0000.46,19.0,25.0,17.0,11.8,0687.6,31.1
2021-07-28T11:42:00Z,00000200,00000000,0007.55,0005.60,0003.64,0001.02,0000.82,0000.29,0000.53,0000.95,0000.76,19.0,25.0,16.9,11.7,0687.6,31.1
2021-07-28T11:43:00Z,00000200,00000000,0008.28,0005.22,0003.34,0000.59,0000.48,0000.62,0001.04,0001.29,0000.95,19.0,25.0,16.8,11.7,0687.6,31.1
2021-07-28T11:44:00Z,00000200,00000000,0008.56,0006.07,0003.54,0001.55,0000.90,0000.48,0000.67,0000.38,0000.39,19.1,25.0,16.8,11.7,0687.5,31.1
2021-07-28T11:45:00Z,00000200,00000000,0008.28,0005.83,0003.64,0001.05,0000.82,0000.63,0000.94,0001.02,0000.61,19.1,25.0,16.8,11.7,0687.5,31.1
2021-07-28T11:46:00Z,00000200,00000000,0007.76,0005.72,0003.28,0001.18,0000.88,0000.50,0000.59,0000.59,0000.53,19.1,25.0,16.9,11.7,0687.6,31.1
2021-07-28T11:47:00Z,00000200,00000000,0008.19,0005.84,0003.14,0001.05,0000.58,0000.60,0001.41,0001.30,0000.97,19.1,25.0,16.7,11.6,0687.6,31.1
2021-07-28T11:48:00Z,00000200,00000000,0008.44,0005.50,0003.36,0000.68,0000.78,0000.52,0000.91,0000.71,0000.60,19.1,25.1,16.8,11.7,0687.6,31.1
2021-07-28T11:49:00Z,00000200,00000000,0007.66,0006.03,0003.82,0000.63,0000.74,0000.50,0000.76,0000.70,0001.10,19.1,25.0,16.7,11.7,0687.6,31.1
2021-07-28T11:50:00Z,00000200,00000000,0009.31,0006.45,0003.84,0001.73,0000.85,0000.92,0000.85,0000.81,0000.41,19.2,25.1,16.7,11.7,0687.6,31.1
2021-07-28T11:51:00Z,00000200,00000000,0008.70,0006.02,0003.96,0001.05,0000.71,0000.75,0000.98,0001.17,0001.13,19.2,25.1,16.9,11.8,0687.7,31.1
2021-07-28T11:52:00Z,00000200,00000000,0007.53,0005.98,0003.59,0000.63,0000.70,0000.32,0001.03,0000.43,0000.42,19.2,25.1,16.8,11.8,0687.6,31.1
2021-07-28T11:53:00Z,00000200,00000000,0007.09,0005.29,0003.10,0001.56,0000.84,0000.39,0000.31,0000.59,0000.49,19.2,25.1,16.5,11.6,0687.5,31.1
2021-07-28T11:54:00Z,00000200,00000000,0006.54,0004.88,0002.66,0000.98,0000.66,0000.41,0000.85,0000.85,0000.58,19.3,25.1,16.5,11.5,0687.6,31.1
2021-07-28T11:55:00Z,00000200,00000000,0006.89,0005.19,0002.94,0001.21,0000.65,0000.76,0000.66,0000.65,0000.68,19.3,25.1,16.4,11.5,0687.6,31.1
2021-07-28T11:56:00Z,00000200,00000000,0006.63,0004.60,0002.65,0001.31,0000.68,0000.28,0001.03,0000.44,0000.64,19.3,25.1,16.4,11.5,0687.7,31.1
2021-07-28T11:57:00Z,00000200,40000000,,,,,,,0000.02,0000.14,-000.03,19.3,25.2,16.2,11.3,0687.8,31.1
2021-07-28T11:58:00Z,00000200,60000000,,,,,,,-000.01,0000.02,-000.42,19.2,25.3,16.4,11.3,0686.7,31.1
2021-07-28T11:59:00Z,00000200,20000000,,,,,,,-000.43,0000.04,0000.17,19.1,25.4,16.6,11.3,0686.7,31.1
